User: anonymous   Login
Location: Unspecified
(0.0000°N, 0.0000°E)
Time: 10:38:38
(UTC+00:00)
Language:

FAISAT-2V - Orbit

View from above orbital plane
View from above orbital plane
View from above satellite
View from above satellite

Ground track
Ground track

The orbit data is extracted from the following two-line orbital elements,

1 24954U 97052B   18019.90215425 +.00000053 +00000-0 +36649-4 0  9994
2 24954 082.9243 124.7719 0038215 308.1585 185.3945 13.79962729023515
Epoch (UTC): 19 January 2018 21:39:06
Eccentricity: 0.0038215
inclination: 82.9243°
perigee height: 936 km
apogee height: 992 km
right ascension of ascending node: 124.7719°
argument of perigee: 308.1585°
revolutions per day: 13.79962729
mean anomaly at epoch: 185.3945°
orbit number at epoch: 2351

The dashed part of the orbit path shows where the satellite is in the earth's shadow,  

DLR